Johnstown, PA

5:10 AM EDT on June 23, 2017 (GMT -0400)
Johnstown-Cambria County

Weather History for KJST - July, 2012

Change the Weather History Date:

Friday, July 6, 2012

  Actual Average Record
Temperature  
Mean Temperature 78 °F 69 °F  
Max Temperature 86 °F 78 °F 99 °F (1949)
Min Temperature 69 °F 60 °F 45 °F (1936)
Degree Days  
Heating Degree Days 0 1  
Month to date heating degree days 6  
Since 1 June heating degree days 85  
Since 1 July heating degree days 6  
Cooling Degree Days 12 5  
Month to date cooling degree days 25  
Year to date cooling degree days 118  
Since 1 June cooling degree days 100  
Growing Degree Days 28 (Base 50)    
Moisture  
Dew Point 67 °F    
Average Humidity 72    
Maximum Humidity 87    
Minimum Humidity 51    
Precipitation  
Precipitation 0.00 in 0.12 in 1.60 in (1950)
Month to date precipitation 0.72  
Year to date precipitation 17.36  
Sea Level Pressure  
Sea Level Pressure 29.99 in    
Wind  
Wind Speed 5 mph (West)    
Max Wind Speed 12 mph    
Max Gust Speed 17 mph    
Visibility 9 miles    
Events      
T = Trace of Precipitation, MM = Missing Value Source: NWS Daily Summary

Daily Weather History Graph

Daily Weather History Graph

Search for Another Location

Airport or City:

Trip Planner

Search our weather history database for the weather conditions in past years. The results will help you decide how hot, cold, wet, or windy it might be!

Date:

Astronomy

Jul. 06, 2012 Rise Set
Actual Time 5:52 AM EDT 8:47 PM EDT
Civil Twilight 5:19 AM EDT 9:20 PM EDT
Nautical Twilight 4:38 AM EDT 10:01 PM EDT
Astronomical Twilight 3:50 AM EDT 10:49 PM EDT
Moon 10:35 PM EDT (7/6) 9:10 AM EDT (7/6)
Length of Visible Light 16h 00m
Length of Day
14h 55m
Waning Gibbous, 89% of the Moon is Illuminated
Jul 6
Waning Gibbous
Jul 10
Last Quarter
Jul 19
New
Jul 26
First Quarter
Aug 1
Full

Hourly Weather History & Observations

Time (EDT) Temp. Heat Index Dew Point Humidity Pressure Visibility Wind Dir Wind Speed Gust Speed Precip Events Conditions
12:54 AM 72.0 °F - 66.0 °F 81% 29.97 in 10.0 mi WNW 6.9 mph - N/A   Clear
1:54 AM 70.0 °F - 64.9 °F 84% 29.96 in 10.0 mi WNW 4.6 mph - N/A   Clear
2:54 AM 69.1 °F - 64.0 °F 84% 29.96 in 10.0 mi WNW 4.6 mph - N/A   Clear
3:54 AM 70.0 °F - 64.0 °F 81% 29.96 in 10.0 mi West 3.5 mph - N/A   Clear
4:54 AM 69.1 °F - 64.0 °F 84% 29.98 in 10.0 mi WSW 3.5 mph - N/A   Clear
5:54 AM 69.1 °F - 64.9 °F 87% 29.99 in 8.0 mi West 3.5 mph - N/A   Clear
6:54 AM 70.0 °F - 64.9 °F 84% 30.00 in 8.0 mi Calm Calm - N/A   Clear
7:54 AM 72.0 °F - 66.9 °F 84% 30.01 in 9.0 mi West 4.6 mph - N/A   Clear
8:54 AM 73.0 °F - 68.0 °F 84% 30.02 in 7.0 mi West 6.9 mph - N/A   Clear
9:54 AM 75.0 °F - 69.1 °F 82% 30.02 in 7.0 mi WSW 4.6 mph - N/A   Partly Cloudy
10:54 AM 78.1 °F - 66.9 °F 68% 30.02 in 10.0 mi NNW 3.5 mph - N/A   Clear
11:54 AM 81.0 °F 83.3 °F 66.9 °F 62% 30.01 in 10.0 mi Variable 4.6 mph - N/A   Clear
12:54 PM 82.0 °F 84.1 °F 66.0 °F 58% 30.01 in 10.0 mi SSW 3.5 mph - N/A   Clear
1:54 PM 84.0 °F 85.8 °F 64.9 °F 53% 30.01 in 10.0 mi WNW 9.2 mph - N/A   Clear
2:54 PM 86.0 °F 88.2 °F 66.0 °F 51% 29.99 in 10.0 mi West 8.1 mph - N/A   Clear
3:54 PM 84.9 °F 87.1 °F 66.0 °F 53% 29.99 in 10.0 mi West 9.2 mph - N/A   Clear
4:54 PM 86.0 °F 89.4 °F 68.0 °F 55% 29.99 in 10.0 mi WNW 11.5 mph 17.3 mph N/A   Partly Cloudy
5:54 PM 84.9 °F 88.2 °F 68.0 °F 57% 29.98 in 10.0 mi West 9.2 mph - N/A   Scattered Clouds
6:54 PM 84.9 °F 88.8 °F 69.1 °F 59% 29.97 in 9.0 mi West 6.9 mph - N/A   Partly Cloudy
7:54 PM 82.9 °F 87.0 °F 70.0 °F 65% 29.97 in 9.0 mi WNW 4.6 mph - N/A   Clear
8:54 PM 80.1 °F 82.9 °F 69.1 °F 69% 29.97 in 9.0 mi West 3.5 mph - N/A   Clear
9:54 PM 78.1 °F - 70.0 °F 76% 29.98 in 9.0 mi WSW 4.6 mph - N/A   Clear
10:54 PM 78.1 °F - 70.0 °F 76% 29.99 in 8.0 mi SW 3.5 mph - N/A   Clear
11:54 PM 75.0 °F - 69.1 °F 82% 30.01 in 9.0 mi West 4.6 mph - N/A   Clear